sat.trackr.live / text

‹ back to catalog

STARLINK-2661

NORAD 48469 · 2021-040AT

PAYLOAD ACTIVE UNKNOWN

§ Identity

Operator
Country
US
Launch date
2021-05-09
Launch site
AFETR
Launch vehicle
Mass (kg)
RCS (m²)

Purposes: comms

External: N2YO · Heavens-Above · Gunter

§ Orbital elements

Epoch: 2026-09-15T17:12:28.393920Z

Period
94.01 min
Inclination
53.1612°
Eccentricity
0.0000999
Mean motion
15.31720225 rev/d
Perigee alt
470.0 km
Apogee alt
471.4 km
Semi-major
6,848.8 km
B*
5.0720e-5
RAAN
26.8340°
Arg perigee
83.0243°
Mean anomaly
277.0872°
Rev number
29,562

§ Raw data

STARLINK-26611 48469U 21040AT  26258.71699530  .00001210  00000+0  50720-4 0  99922 48469  53.1612  26.8340 0000999  83.0243 277.0872 15.31720225295626

JSON: /api/v1/satellites/48469 · /tle

For live sub-satellite position, see the globe view (requires WebGL).

§ Visibility from observer

Set your observer location to see the next 7 days of passes ≥ 10°. The values pass through the URL so the page stays shareable.

No JS? Fill the form by hand. The geolocation button needs JavaScript.